Location: Shepherdstown, WV
(39.4326°N, 77.8042°W)
Time: 22:02:09
(UTC-04:00)

Vanguard 1 Rocket - Pass Details

Date: 10 August 2021
Orbit: 650 x 4226 km, 34.3° (Epoch: 16 September)

Event Time Altitude Azimuth Distance (km) Brightness Sun altitude
Rises 08:28:02 0° 235° (SW) 8,251 11.8 23.4°
Reaches altitude 10° 08:33:40 10° 233° (SW) 7,371 11.6 24.5°
Maximum altitude 08:59:13 63° 160° (SSE) 4,014 11.3 29.4°
Drops below altitude 10° 09:16:29 10° 85° (E) 5,286 12.7 32.7°
Sets 09:19:43 0° 82° (E) 5,921 12.5 33.3°
